Location: Centerville
(32.8776°N, 96.6203°W)
Time: 23:10:27
(UTC+00:00)

ATLAS 5 CENTAUR R/B - Pass Details

Date: 17 June 2021
Orbit: 510 x 1148 km, 63.4° (Epoch: 28 July)

Event Time Altitude Azimuth Distance (km) Brightness Sun altitude
Exits shadow 08:30:26 46° 32° (NNE) 718 2.2 -26.6°
Drops below altitude 10° 08:33:24 10° 31° (NNE) 1,848 5.0 -26.2°
Sets 08:35:45 0° 31° (NNE) 2,819 6.3 -26.0°
